Livermore, CA

7:59 AM PST on December 17, 2017 (GMT -0800)
Livermore Municipal

Weather History for KLVK - March, 2013

Change the Weather History Date:

Saturday, March 23, 2013

  Actual Average Record
Temperature  
Mean Temperature 53 °F 54 °F  
Max Temperature 70 °F 65 °F 81 °F (2007)
Min Temperature 36 °F 43 °F 25 °F (1951)
Degree Days  
Heating Degree Days 12 11  
Month to date heating degree days 225 267  
Since 1 July heating degree days 2165 2274  
Cooling Degree Days 0 0  
Month to date cooling degree days 0 0  
Year to date cooling degree days 0 0  
Growing Degree Days 4 (Base 50)    
Moisture  
Dew Point 28 °F    
Average Humidity 42    
Maximum Humidity 65    
Minimum Humidity 19    
Precipitation  
Precipitation 0.00 in 0.06 in 1.02 in (2005)
Month to date precipitation 0.27 1.69  
Year to date precipitation 1.39 7.73  
Since 1 July precipitation 9.68  
Sea Level Pressure  
Sea Level Pressure 30.09 in    
Wind  
Wind Speed 4 mph (ENE)    
Max Wind Speed 14 mph    
Max Gust Speed 17 mph    
Visibility 10 miles    
Events      
T = Trace of Precipitation, MM = Missing Value Source: NWS Daily Summary

Daily Weather History Graph

Daily Weather History Graph

Search for Another Location

Airport or City:

Trip Planner

Search our weather history database for the weather conditions in past years. The results will help you decide how hot, cold, wet, or windy it might be!

Date:

Astronomy

Mar. 23, 2013 Rise Set
Actual Time 7:05 AM PDT 7:22 PM PDT
Civil Twilight 6:39 AM PDT 7:48 PM PDT
Nautical Twilight 6:08 AM PDT 8:19 PM PDT
Astronomical Twilight 5:37 AM PDT 8:50 PM PDT
Moon 3:57 PM PDT (3/23) 4:41 AM PDT (3/23)
Length of Visible Light 13h 08m
Length of Day
12h 16m
Waxing Gibbous, 86% of the Moon is Illuminated
Mar 23
Waxing Gibbous
Mar 27
Full
Apr 2
Last Quarter
Apr 10
New
Apr 18
First Quarter

Hourly Weather History & Observations

Time (PDT) Temp. Windchill Dew Point Humidity Pressure Visibility Wind Dir Wind Speed Gust Speed Precip Events Conditions
12:53 AM 43.0 °F - 27.0 °F 53% 30.09 in 10.0 mi Calm Calm - N/A   Clear
1:53 AM 44.1 °F 42.5 °F 26.1 °F 49% 30.09 in 10.0 mi ESE 3.5 mph - N/A   Clear
2:53 AM 42.1 °F - 28.0 °F 58% 30.09 in 10.0 mi Calm Calm - N/A   Clear
3:53 AM 39.9 °F - 28.0 °F 63% 30.09 in 10.0 mi Calm Calm - N/A   Clear
4:53 AM 42.1 °F - 26.1 °F 53% 30.09 in 10.0 mi Calm Calm - N/A   Clear
5:53 AM 42.1 °F 40.2 °F 26.1 °F 53% 30.10 in 10.0 mi NE 3.5 mph - N/A   Clear
6:53 AM 44.1 °F - 25.0 °F 47% 30.12 in 10.0 mi Calm Calm - N/A   Clear
7:53 AM 45.0 °F - 26.1 °F 48% 30.14 in 10.0 mi Calm Calm - N/A   Clear
8:53 AM 52.0 °F - 25.0 °F 35% 30.15 in 10.0 mi East 9.2 mph - N/A   Clear
9:53 AM 54.0 °F - 25.0 °F 33% 30.15 in 10.0 mi East 10.4 mph - N/A   Clear
10:53 AM 57.9 °F - 25.0 °F 28% 30.14 in 10.0 mi ENE 10.4 mph - N/A   Clear
11:53 AM 61.0 °F - 26.1 °F 26% 30.13 in 10.0 mi ENE 12.7 mph - N/A   Clear
12:53 PM 63.0 °F - 27.0 °F 26% 30.11 in 10.0 mi East 8.1 mph - N/A   Clear
1:53 PM 66.0 °F - 27.0 °F 23% 30.09 in 10.0 mi East 8.1 mph - N/A   Clear
2:53 PM 66.9 °F - 25.0 °F 21% 30.06 in 10.0 mi Calm Calm - N/A   Clear
3:53 PM 68.0 °F - 24.1 °F 19% 30.05 in 10.0 mi Calm Calm - N/A   Clear
4:53 PM 68.0 °F - 27.0 °F 21% 30.04 in 10.0 mi Calm Calm - N/A   Clear
5:53 PM 69.1 °F - 27.0 °F 21% 30.03 in 10.0 mi Calm Calm - N/A   Clear
7:53 PM 57.0 °F - 36.0 °F 45% 30.06 in 10.0 mi WNW 10.4 mph - N/A   Clear
8:53 PM 55.0 °F - 37.0 °F 51% 30.06 in 10.0 mi WNW 3.5 mph - N/A   Clear
9:53 PM 53.1 °F - 37.0 °F 55% 30.08 in 10.0 mi Calm Calm - N/A   Clear
10:53 PM 48.9 °F - 36.0 °F 61% 30.08 in 10.0 mi Calm Calm - N/A   Clear
11:53 PM 46.0 °F - 36.0 °F 68% 30.08 in 10.0 mi Calm Calm - N/A   Clear